Time,TemperatureF,DewpointF,PressureIn,WindDirection,WindDirectionDegrees,WindSpeedMPH,WindSpeedGustMPH,Humidity,HourlyPrecipIn,Conditions,Clouds,dailyrainin,SoftwareType,DateUTC
2013-03-16 00:00:00,38.4,32.2,29.71,South,188,9.0,14.0,78,0.00,,---,0.00,VWS V14.01,2013-03-16 04:00:00,
2013-03-16 00:05:00,38.5,31.9,29.71,WSW,238,13.0,13.0,77,0.00,,---,0.00,VWS V14.01,2013-03-16 04:05:00,
2013-03-16 00:10:00,38.6,31.7,29.71,West,275,5.0,13.0,76,0.00,,---,0.00,VWS V14.01,2013-03-16 04:10:00,
2013-03-16 00:15:00,38.7,31.8,29.71,SW,234,6.0,14.0,76,0.00,,---,0.00,VWS V14.01,2013-03-16 04:15:00,
2013-03-16 00:20:00,38.6,32.0,29.71,West,276,5.0,14.0,77,0.00,,---,0.00,VWS V14.01,2013-03-16 04:20:00,
2013-03-16 00:25:00,38.6,32.0,29.72,West,261,5.0,14.0,77,0.00,,---,0.00,VWS V14.01,2013-03-16 04:25:00,
2013-03-16 00:30:00,38.5,31.6,29.71,West,263,11.0,15.0,76,0.00,,---,0.00,VWS V14.01,2013-03-16 04:30:00,
2013-03-16 00:35:00,38.4,31.8,29.71,WNW,282,6.0,9.0,77,0.00,,---,0.00,VWS V14.01,2013-03-16 04:35:00,
2013-03-16 00:40:00,38.4,31.8,29.72,WNW,301,7.0,11.0,77,0.00,,---,0.00,VWS V14.01,2013-03-16 04:40:00,
2013-03-16 00:45:00,38.3,31.4,29.72,West,264,8.0,14.0,76,0.00,,---,0.00,VWS V14.01,2013-03-16 04:45:00,
2013-03-16 00:50:00,38.3,30.8,29.72,WSW,252,16.0,16.0,74,0.00,,---,0.00,VWS V14.01,2013-03-16 04:50:00,
2013-03-16 00:55:00,38.2,30.3,29.72,NW,321,6.0,16.0,73,0.00,,---,0.00,VWS V14.01,2013-03-16 04:55:00,
2013-03-16 01:00:00,38.2,30.3,29.72,West,274,4.0,16.0,73,0.00,,---,0.00,VWS V14.01,2013-03-16 05:00:00,
2013-03-16 01:05:00,38.1,29.9,29.73,NW,311,10.0,11.0,72,0.00,,---,0.00,VWS V14.01,2013-03-16 05:05:00,
2013-03-16 01:10:00,38.1,29.9,29.72,West,267,5.0,14.0,72,0.00,,---,0.00,VWS V14.01,2013-03-16 05:10:00,
2013-03-16 01:15:00,38.0,29.5,29.73,WNW,300,3.0,14.0,71,0.00,,---,0.00,VWS V14.01,2013-03-16 05:15:00,
2013-03-16 01:20:00,38.0,29.5,29.73,WSW,240,1.0,14.0,71,0.00,,---,0.00,VWS V14.01,2013-03-16 05:20:00,
2013-03-16 01:25:00,37.9,29.4,29.73,WSW,238,8.0,14.0,71,0.00,,---,0.00,VWS V14.01,2013-03-16 05:25:00,
2013-03-16 01:30:00,37.8,29.3,29.73,West,276,10.0,14.0,71,0.00,,---,0.00,VWS V14.01,2013-03-16 05:30:00,
2013-03-16 01:35:00,37.7,29.2,29.73,WSW,254,3.0,10.0,71,0.00,,---,0.00,VWS V14.01,2013-03-16 05:35:00,
2013-03-16 01:40:00,37.6,29.1,29.73,West,275,5.0,10.0,71,0.00,,---,0.00,VWS V14.01,2013-03-16 05:40:00,
2013-03-16 01:45:00,37.5,29.0,29.73,WSW,245,1.0,10.0,71,0.00,,---,0.00,VWS V14.01,2013-03-16 05:45:00,
2013-03-16 01:50:00,37.4,29.2,29.74,WSW,238,1.0,10.0,72,0.00,,---,0.00,VWS V14.01,2013-03-16 05:50:00,
2013-03-16 01:55:00,37.3,29.5,29.74,WSW,241,6.0,10.0,73,0.00,,---,0.00,VWS V14.01,2013-03-16 05:55:00,
2013-03-16 02:00:00,37.2,29.4,29.74,WNW,299,5.0,11.0,73,0.00,,---,0.00,VWS V14.01,2013-03-16 06:00:00,
2013-03-16 02:05:00,37.1,29.6,29.74,WSW,242,1.0,8.0,74,0.00,,---,0.00,VWS V14.01,2013-03-16 06:05:00,
2013-03-16 02:10:00,37.0,29.5,29.74,West,262,2.0,8.0,74,0.00,,---,0.00,VWS V14.01,2013-03-16 06:10:00,
2013-03-16 02:15:00,36.9,29.7,29.75,WNW,290,5.0,8.0,75,0.00,,---,0.00,VWS V14.01,2013-03-16 06:15:00,
2013-03-16 02:20:00,36.7,29.5,29.75,West,267,5.0,11.0,75,0.00,,---,0.00,VWS V14.01,2013-03-16 06:20:00,
2013-03-16 02:25:00,36.6,29.4,29.75,WNW,284,1.0,11.0,75,0.00,,---,0.00,VWS V14.01,2013-03-16 06:25:00,
2013-03-16 02:30:00,36.5,29.3,29.75,WSW,249,2.0,11.0,75,0.00,,---,0.00,VWS V14.01,2013-03-16 06:30:00,
2013-03-16 02:35:00,36.4,29.2,29.75,WNW,288,0.0,8.0,75,0.00,,---,0.00,VWS V14.01,2013-03-16 06:35:00,
2013-03-16 02:40:00,36.4,29.2,29.75,WNW,299,2.0,8.0,75,0.00,,---,0.00,VWS V14.01,2013-03-16 06:40:00,
2013-03-16 02:45:00,36.3,29.1,29.75,West,278,2.0,8.0,75,0.00,,---,0.00,VWS V14.01,2013-03-16 06:45:00,
2013-03-16 02:50:00,36.2,28.7,29.75,WNW,285,0.0,8.0,74,0.00,,---,0.00,VWS V14.01,2013-03-16 06:50:00,
2013-03-16 02:55:00,36.1,29.0,29.75,WNW,296,7.0,8.0,75,0.00,,---,0.00,VWS V14.01,2013-03-16 06:55:00,
2013-03-16 03:00:00,36.1,29.0,29.75,NW,318,9.0,9.0,75,0.00,,---,0.00,VWS V14.01,2013-03-16 07:00:00,
2013-03-16 03:05:00,36.0,28.9,29.75,WNW,298,0.0,5.0,75,0.00,,---,0.00,VWS V14.01,2013-03-16 07:05:00,
2013-03-16 03:10:00,35.9,28.4,29.76,NW,315,5.0,9.0,74,0.00,,---,0.00,VWS V14.01,2013-03-16 07:10:00,
2013-03-16 03:15:00,35.8,28.3,29.76,WNW,294,3.0,9.0,74,0.00,,---,0.00,VWS V14.01,2013-03-16 07:15:00,
2013-03-16 03:20:00,35.8,28.3,29.77,West,276,4.0,9.0,74,0.00,,---,0.00,VWS V14.01,2013-03-16 07:20:00,
2013-03-16 03:25:00,35.8,28.0,29.76,NW,318,0.0,11.0,73,0.00,,---,0.00,VWS V14.01,2013-03-16 07:25:00,
2013-03-16 03:30:00,35.9,27.8,29.77,WNW,293,1.0,11.0,72,0.00,,---,0.00,VWS V14.01,2013-03-16 07:30:00,
2013-03-16 03:35:00,35.8,27.7,29.77,West,270,6.0,9.0,72,0.00,,---,0.00,VWS V14.01,2013-03-16 07:35:00,
2013-03-16 03:40:00,35.7,27.9,29.77,NW,317,11.0,13.0,73,0.00,,---,0.00,VWS V14.01,2013-03-16 07:40:00,
2013-03-16 03:45:00,35.6,27.8,29.77,NW,307,5.0,13.0,73,0.00,,---,0.00,VWS V14.01,2013-03-16 07:45:00,
2013-03-16 03:50:00,35.6,27.8,29.77,WNW,294,6.0,13.0,73,0.00,,---,0.00,VWS V14.01,2013-03-16 07:50:00,
2013-03-16 03:55:00,35.5,27.7,29.77,WNW,295,7.0,13.0,73,0.00,,---,0.00,VWS V14.01,2013-03-16 07:55:00,
2013-03-16 04:00:00,35.3,27.9,29.77,WNW,299,1.0,13.0,74,0.00,,---,0.00,VWS V14.01,2013-03-16 08:00:00,
2013-03-16 04:05:00,35.2,27.8,29.78,NW,313,5.0,9.0,74,0.00,,---,0.00,VWS V14.01,2013-03-16 08:05:00,
2013-03-16 04:10:00,35.1,27.3,29.78,WNW,296,8.0,14.0,73,0.00,,---,0.00,VWS V14.01,2013-03-16 08:10:00,
2013-03-16 04:15:00,35.1,27.3,29.78,NW,311,0.0,14.0,73,0.00,,---,0.00,VWS V14.01,2013-03-16 08:15:00,
2013-03-16 04:20:00,35.0,26.9,29.78,NNW,331,15.0,15.0,72,0.00,,---,0.00,VWS V14.01,2013-03-16 08:20:00,
2013-03-16 04:25:00,35.0,26.9,29.78,WNW,294,3.0,15.0,72,0.00,,---,0.00,VWS V14.01,2013-03-16 08:25:00,
2013-03-16 04:30:00,34.9,26.8,29.79,NW,309,11.0,15.0,72,0.00,,---,0.00,VWS V14.01,2013-03-16 08:30:00,
2013-03-16 04:35:00,34.8,27.0,29.78,WNW,290,7.0,16.0,73,0.00,,---,0.00,VWS V14.01,2013-03-16 08:35:00,
2013-03-16 04:40:00,34.7,27.0,29.79,WNW,303,12.0,20.0,73,0.00,,---,0.00,VWS V14.01,2013-03-16 08:40:00,
2013-03-16 04:45:00,34.7,27.3,29.79,West,263,1.0,20.0,74,0.00,,---,0.00,VWS V14.01,2013-03-16 08:45:00,
2013-03-16 04:50:00,34.7,27.0,29.80,WNW,299,10.0,20.0,73,0.00,,---,0.00,VWS V14.01,2013-03-16 08:50:00,
2013-03-16 04:54:00,34.6,27.2,29.80,West,265,0.0,20.0,74,0.00,,---,0.00,VWS V14.01,2013-03-16 08:54:00,
2013-03-16 04:59:00,34.4,27.0,29.80,WSW,251,3.0,20.0,74,0.00,,---,0.00,VWS V14.01,2013-03-16 08:59:00,
2013-03-16 05:04:00,34.4,27.3,29.80,WNW,303,9.0,9.0,75,0.00,,---,0.00,VWS V14.01,2013-03-16 09:04:00,
2013-03-16 05:09:00,34.4,27.0,29.80,NNW,330,8.0,9.0,74,0.00,,---,0.00,VWS V14.01,2013-03-16 09:09:00,
2013-03-16 05:14:00,34.2,26.8,29.81,West,275,3.0,13.0,74,0.00,,---,0.00,VWS V14.01,2013-03-16 09:14:00,
2013-03-16 05:19:00,34.2,26.8,29.81,WNW,298,2.0,13.0,74,0.00,,---,0.00,VWS V14.01,2013-03-16 09:19:00,
2013-03-16 05:24:00,34.1,26.4,29.81,WNW,294,4.0,13.0,73,0.00,,---,0.00,VWS V14.01,2013-03-16 09:24:00,
2013-03-16 05:29:00,34.0,25.9,29.82,WNW,302,2.0,13.0,72,0.00,,---,0.00,VWS V14.01,2013-03-16 09:29:00,
2013-03-16 05:34:00,33.9,26.2,29.82,West,271,3.0,11.0,73,0.00,,---,0.00,VWS V14.01,2013-03-16 09:34:00,
2013-03-16 05:39:00,33.8,26.1,29.82,WNW,301,5.0,11.0,73,0.00,,---,0.00,VWS V14.01,2013-03-16 09:39:00,
2013-03-16 05:44:00,33.8,26.1,29.82,WNW,302,6.0,11.0,73,0.00,,---,0.00,VWS V14.01,2013-03-16 09:44:00,
2013-03-16 05:49:00,33.7,26.3,29.83,NW,311,5.0,11.0,74,0.00,,---,0.00,VWS V14.01,2013-03-16 09:49:00,
2013-03-16 05:54:00,33.6,26.5,29.83,WNW,292,5.0,11.0,75,0.00,,---,0.00,VWS V14.01,2013-03-16 09:54:00,
2013-03-16 05:59:00,33.5,26.4,29.83,WNW,282,4.0,11.0,75,0.00,,---,0.00,VWS V14.01,2013-03-16 09:59:00,
2013-03-16 06:04:00,33.4,26.7,29.83,NW,316,2.0,7.0,76,0.00,,---,0.00,VWS V14.01,2013-03-16 10:04:00,
2013-03-16 06:09:00,33.2,26.5,29.83,West,261,0.0,7.0,76,0.00,,---,0.00,VWS V14.01,2013-03-16 10:09:00,
2013-03-16 06:14:00,33.2,26.5,29.83,WNW,300,0.0,8.0,76,0.00,,---,0.00,VWS V14.01,2013-03-16 10:14:00,
2013-03-16 06:19:00,33.1,26.4,29.83,NW,309,0.0,8.0,76,0.00,,---,0.00,VWS V14.01,2013-03-16 10:19:00,
2013-03-16 06:24:00,33.0,26.0,29.83,NW,310,5.0,8.0,75,0.00,,---,0.00,VWS V14.01,2013-03-16 10:24:00,
2013-03-16 06:29:00,33.0,26.0,29.82,NW,308,2.0,8.0,75,0.00,,---,0.00,VWS V14.01,2013-03-16 10:29:00,
2013-03-16 06:34:00,32.9,25.9,29.82,NW,307,4.0,7.0,75,0.00,,---,0.00,VWS V14.01,2013-03-16 10:34:00,
2013-03-16 06:39:00,32.9,25.5,29.83,NW,315,3.0,7.0,74,0.00,,---,0.00,VWS V14.01,2013-03-16 10:39:00,
2013-03-16 06:44:00,32.9,25.5,29.83,WNW,303,4.0,7.0,74,0.00,,---,0.00,VWS V14.01,2013-03-16 10:44:00,
2013-03-16 06:49:00,32.8,25.8,29.83,WNW,296,0.0,7.0,75,0.00,,---,0.00,VWS V14.01,2013-03-16 10:49:00,
2013-03-16 06:54:00,32.7,25.7,29.83,NW,321,0.0,7.0,75,0.00,,---,0.00,VWS V14.01,2013-03-16 10:54:00,
2013-03-16 06:59:00,32.7,25.7,29.83,NW,308,4.0,8.0,75,0.00,,---,0.00,VWS V14.01,2013-03-16 10:59:00,
2013-03-16 07:04:00,32.6,25.6,29.83,NW,314,2.0,7.0,75,0.00,,---,0.00,VWS V14.01,2013-03-16 11:04:00,
2013-03-16 07:09:00,32.7,25.7,29.83,NW,313,2.0,7.0,75,0.00,,---,0.00,VWS V14.01,2013-03-16 11:09:00,
2013-03-16 07:14:00,32.7,25.7,29.83,NW,311,0.0,9.0,75,0.00,,---,0.00,VWS V14.01,2013-03-16 11:14:00,
2013-03-16 07:19:00,32.8,25.8,29.84,NW,326,3.0,9.0,75,0.00,,---,0.00,VWS V14.01,2013-03-16 11:19:00,
2013-03-16 07:24:00,32.9,25.9,29.84,NW,317,0.0,9.0,75,0.00,,---,0.00,VWS V14.01,2013-03-16 11:24:00,
2013-03-16 07:29:00,33.0,25.6,29.84,NW,326,0.0,9.0,74,0.00,,---,0.00,VWS V14.01,2013-03-16 11:29:00,
2013-03-16 07:34:00,33.0,25.6,29.85,NW,313,0.0,4.0,74,0.00,,---,0.00,VWS V14.01,2013-03-16 11:34:00,
2013-03-16 07:39:00,33.1,25.4,29.85,NW,321,0.0,6.0,73,0.00,,---,0.00,VWS V14.01,2013-03-16 11:39:00,
2013-03-16 07:44:00,33.2,25.5,29.85,WNW,301,6.0,6.0,73,0.00,,---,0.00,VWS V14.01,2013-03-16 11:44:00,
2013-03-16 07:49:00,33.3,25.6,29.84,NW,309,4.0,8.0,73,0.00,,---,0.00,VWS V14.01,2013-03-16 11:49:00,
2013-03-16 07:54:00,33.4,25.7,29.84,WNW,303,1.0,8.0,73,0.00,,---,0.00,VWS V14.01,2013-03-16 11:54:00,
2013-03-16 07:59:00,33.6,25.9,29.85,NNW,328,6.0,9.0,73,0.00,,---,0.00,VWS V14.01,2013-03-16 11:59:00,
2013-03-16 08:04:00,33.7,25.6,29.85,NW,305,5.0,8.0,72,0.00,,---,0.00,VWS V14.01,2013-03-16 12:04:00,
2013-03-16 08:09:00,33.8,25.4,29.85,NW,313,1.0,8.0,71,0.00,,---,0.00,VWS V14.01,2013-03-16 12:09:00,
2013-03-16 08:14:00,33.9,25.5,29.85,NNW,328,8.0,8.0,71,0.00,,---,0.00,VWS V14.01,2013-03-16 12:14:00,
2013-03-16 08:19:00,33.9,24.8,29.85,WNW,294,4.0,11.0,69,0.00,,---,0.00,VWS V14.01,2013-03-16 12:19:00,
2013-03-16 08:24:00,34.0,24.9,29.85,NW,310,3.0,11.0,69,0.00,,---,0.00,VWS V14.01,2013-03-16 12:24:00,
2013-03-16 08:29:00,34.2,24.8,29.85,NW,311,9.0,11.0,68,0.00,,---,0.00,VWS V14.01,2013-03-16 12:29:00,
2013-03-16 08:34:00,34.4,24.6,29.86,NW,316,5.0,7.0,67,0.00,,---,0.00,VWS V14.01,2013-03-16 12:34:00,
2013-03-16 08:39:00,34.6,24.4,29.85,WNW,286,5.0,8.0,66,0.00,,---,0.00,VWS V14.01,2013-03-16 12:39:00,
2013-03-16 08:44:00,34.9,24.7,29.85,WNW,291,2.0,8.0,66,0.00,,---,0.00,VWS V14.01,2013-03-16 12:44:00,
2013-03-16 08:50:00,35.3,24.7,29.85,NW,315,0.0,8.0,65,0.00,,---,0.00,VWS V14.01,2013-03-16 12:50:00,
2013-03-16 08:55:00,35.4,24.1,29.86,NNW,336,2.0,8.0,63,0.00,,---,0.00,VWS V14.01,2013-03-16 12:55:00,
2013-03-16 09:00:00,35.3,24.0,29.85,NNW,331,8.0,10.0,63,0.00,,---,0.00,VWS V14.01,2013-03-16 13:00:00,
2013-03-16 09:05:00,35.3,24.4,29.85,NW,313,7.0,8.0,64,0.00,,---,0.00,VWS V14.01,2013-03-16 13:05:00,
2013-03-16 09:10:00,35.6,24.6,29.85,West,276,0.0,9.0,64,0.00,,---,0.00,VWS V14.01,2013-03-16 13:10:00,
2013-03-16 09:15:00,35.8,24.8,29.85,NW,311,3.0,10.0,64,0.00,,---,0.00,VWS V14.01,2013-03-16 13:15:00,
2013-03-16 09:20:00,35.9,24.2,29.86,NW,319,9.0,10.0,62,0.00,,---,0.00,VWS V14.01,2013-03-16 13:20:00,
2013-03-16 09:25:00,36.0,24.3,29.86,NW,308,8.0,10.0,62,0.00,,---,0.00,VWS V14.01,2013-03-16 13:25:00,
2013-03-16 09:30:00,36.3,24.5,29.86,NW,312,4.0,10.0,62,0.00,,---,0.00,VWS V14.01,2013-03-16 13:30:00,
2013-03-16 09:35:00,36.5,24.7,29.86,SW,232,1.0,8.0,62,0.00,,---,0.00,VWS V14.01,2013-03-16 13:35:00,
2013-03-16 09:40:00,36.8,24.2,29.86,NNW,332,9.0,9.0,60,0.00,,---,0.00,VWS V14.01,2013-03-16 13:40:00,
2013-03-16 09:45:00,36.7,24.9,29.86,NW,314,4.0,9.0,62,0.00,,---,0.00,VWS V14.01,2013-03-16 13:45:00,
2013-03-16 09:50:00,36.9,23.5,29.86,NW,321,7.0,10.0,58,0.00,,---,0.00,VWS V14.01,2013-03-16 13:50:00,
2013-03-16 09:55:00,37.0,24.0,29.86,WNW,301,4.0,11.0,59,0.00,,---,0.00,VWS V14.01,2013-03-16 13:55:00,
2013-03-16 10:00:00,37.4,24.0,29.85,NW,318,5.0,11.0,58,0.00,,---,0.00,VWS V14.01,2013-03-16 14:00:00,
2013-03-16 10:05:00,37.6,23.8,29.86,NW,313,2.0,8.0,57,0.00,,---,0.00,VWS V14.01,2013-03-16 14:05:00,
2013-03-16 10:10:00,37.5,24.1,29.86,NW,323,4.0,9.0,58,0.00,,---,0.00,VWS V14.01,2013-03-16 14:10:00,
2013-03-16 10:15:00,37.4,23.1,29.86,SW,235,0.0,9.0,56,0.00,,---,0.00,VWS V14.01,2013-03-16 14:15:00,
2013-03-16 10:20:00,37.3,23.1,29.86,NW,305,2.0,9.0,56,0.00,,---,0.00,VWS V14.01,2013-03-16 14:20:00,
2013-03-16 10:25:00,37.3,22.2,29.85,NNW,332,7.0,9.0,54,0.00,,---,0.00,VWS V14.01,2013-03-16 14:25:00,
2013-03-16 10:30:00,37.0,22.4,29.85,WNW,290,0.0,9.0,55,0.00,,---,0.00,VWS V14.01,2013-03-16 14:30:00,
2013-03-16 10:35:00,37.1,21.6,29.85,WSW,258,0.0,9.0,53,0.00,,---,0.00,VWS V14.01,2013-03-16 14:35:00,
2013-03-16 10:40:00,37.0,21.5,29.85,West,269,1.0,9.0,53,0.00,,---,0.00,VWS V14.01,2013-03-16 14:40:00,
2013-03-16 10:45:00,37.1,21.6,29.85,West,266,0.0,9.0,53,0.00,,---,0.00,VWS V14.01,2013-03-16 14:45:00,
2013-03-16 10:50:00,37.1,21.6,29.85,NNW,333,3.0,12.0,53,0.00,,---,0.00,VWS V14.01,2013-03-16 14:50:00,
2013-03-16 10:55:00,37.1,21.6,29.85,WSW,244,0.0,12.0,53,0.00,,---,0.00,VWS V14.01,2013-03-16 14:55:00,
2013-03-16 11:00:00,37.3,22.2,29.85,WNW,291,3.0,12.0,54,0.00,,---,0.00,VWS V14.01,2013-03-16 15:00:00,
2013-03-16 11:05:00,37.4,21.9,29.85,SSW,198,5.0,7.0,53,0.00,,---,0.00,VWS V14.01,2013-03-16 15:05:00,
2013-03-16 11:10:00,37.4,20.9,29.85,WNW,286,1.0,7.0,51,0.00,,---,0.00,VWS V14.01,2013-03-16 15:10:00,
2013-03-16 11:15:00,37.5,21.0,29.85,NW,305,5.0,7.0,51,0.00,,---,0.00,VWS V14.01,2013-03-16 15:15:00,
2013-03-16 11:20:00,37.5,20.6,29.84,NW,326,3.0,7.0,50,0.00,,---,0.00,VWS V14.01,2013-03-16 15:20:00,
2013-03-16 11:25:00,37.6,20.7,29.85,WNW,284,0.0,7.0,50,0.00,,---,0.00,VWS V14.01,2013-03-16 15:25:00,
2013-03-16 11:30:00,37.7,19.8,29.84,WSW,249,0.0,7.0,48,0.00,,---,0.00,VWS V14.01,2013-03-16 15:30:00,
2013-03-16 11:35:00,37.9,20.5,29.84,WSW,255,0.0,3.0,49,0.00,,---,0.00,VWS V14.01,2013-03-16 15:35:00,
2013-03-16 11:40:00,38.1,20.6,29.84,WNW,289,1.0,10.0,49,0.00,,---,0.00,VWS V14.01,2013-03-16 15:40:00,
2013-03-16 11:45:00,38.2,20.2,29.84,WNW,286,2.0,10.0,48,0.00,,---,0.00,VWS V14.01,2013-03-16 15:45:00,
2013-03-16 11:50:00,38.1,19.7,29.84,WNW,296,0.0,10.0,47,0.00,,---,0.00,VWS V14.01,2013-03-16 15:50:00,
2013-03-16 11:55:00,38.1,19.2,29.84,WNW,292,0.0,10.0,46,0.00,,---,0.00,VWS V14.01,2013-03-16 15:55:00,
2013-03-16 12:00:00,38.1,18.1,29.84,WNW,300,4.0,10.0,44,0.00,,---,0.00,VWS V14.01,2013-03-16 16:00:00,
2013-03-16 12:05:00,38.1,18.6,29.84,SW,231,0.0,6.0,45,0.00,,---,0.00,VWS V14.01,2013-03-16 16:05:00,
2013-03-16 12:10:00,38.0,17.0,29.84,WNW,291,3.0,8.0,42,0.00,,---,0.00,VWS V14.01,2013-03-16 16:10:00,
2013-03-16 12:15:00,37.9,17.4,29.84,WNW,295,0.0,8.0,43,0.00,,---,0.00,VWS V14.01,2013-03-16 16:15:00,
2013-03-16 12:20:00,38.0,17.0,29.84,West,272,0.0,8.0,42,0.00,,---,0.00,VWS V14.01,2013-03-16 16:20:00,
2013-03-16 12:25:00,38.0,17.0,29.84,West,267,0.0,8.0,42,0.00,,---,0.00,VWS V14.01,2013-03-16 16:25:00,
2013-03-16 12:30:00,37.9,17.4,29.84,WNW,299,0.0,8.0,43,0.00,,---,0.00,VWS V14.01,2013-03-16 16:30:00,
2013-03-16 12:35:00,37.9,18.0,29.84,WSW,249,0.0,6.0,44,0.00,,---,0.00,VWS V14.01,2013-03-16 16:35:00,
2013-03-16 12:40:00,37.9,17.4,29.84,SW,234,0.0,6.0,43,0.00,,---,0.00,VWS V14.01,2013-03-16 16:40:00,
2013-03-16 12:45:00,38.0,17.0,29.83,WSW,253,0.0,6.0,42,0.00,,---,0.00,VWS V14.01,2013-03-16 16:45:00,
2013-03-16 12:50:00,38.5,18.5,29.83,West,269,0.0,6.0,44,0.00,,---,0.00,VWS V14.01,2013-03-16 16:50:00,
2013-03-16 12:55:00,39.1,19.6,29.83,WSW,243,1.0,6.0,45,0.00,,---,0.00,VWS V14.01,2013-03-16 16:55:00,
2013-03-16 13:00:00,39.2,18.6,29.83,WSW,241,0.0,6.0,43,0.00,,---,0.00,VWS V14.01,2013-03-16 17:00:00,
2013-03-16 13:05:00,39.1,18.5,29.82,WSW,243,2.0,2.0,43,0.00,,---,0.00,VWS V14.01,2013-03-16 17:05:00,
2013-03-16 13:10:00,39.2,19.1,29.82,NW,317,3.0,4.0,44,0.00,,---,0.00,VWS V14.01,2013-03-16 17:10:00,
2013-03-16 13:15:00,38.9,18.9,29.82,NNW,337,5.0,6.0,44,0.00,,---,0.00,VWS V14.01,2013-03-16 17:15:00,
2013-03-16 13:20:00,39.2,19.1,29.82,NW,307,5.0,6.0,44,0.00,,---,0.00,VWS V14.01,2013-03-16 17:20:00,
2013-03-16 13:25:00,39.5,17.8,29.82,West,259,0.0,6.0,41,0.00,,---,0.00,VWS V14.01,2013-03-16 17:25:00,
2013-03-16 13:30:00,39.7,18.5,29.82,WSW,247,0.0,6.0,42,0.00,,---,0.00,VWS V14.01,2013-03-16 17:30:00,
2013-03-16 13:35:00,40.1,19.4,29.82,West,279,0.0,2.0,43,0.00,,---,0.00,VWS V14.01,2013-03-16 17:35:00,
2013-03-16 13:40:00,40.1,19.4,29.82,SSW,209,4.0,7.0,43,0.00,,---,0.00,VWS V14.01,2013-03-16 17:40:00,
2013-03-16 13:45:00,39.5,18.3,29.81,WSW,244,0.0,7.0,42,0.00,,---,0.00,VWS V14.01,2013-03-16 17:45:00,
2013-03-16 13:50:00,39.2,19.1,29.81,SSW,201,3.0,7.0,44,0.00,,---,0.00,VWS V14.01,2013-03-16 17:50:00,
2013-03-16 13:55:00,39.1,18.5,29.81,SSW,211,2.0,7.0,43,0.00,,---,0.00,VWS V14.01,2013-03-16 17:55:00,
2013-03-16 14:00:00,39.3,20.3,29.82,SW,215,3.0,9.0,46,0.00,,---,0.00,VWS V14.01,2013-03-16 18:00:00,
2013-03-16 14:05:00,38.8,19.8,29.81,SW,214,7.0,9.0,46,0.00,,---,0.00,VWS V14.01,2013-03-16 18:05:00,
2013-03-16 14:10:00,38.6,21.6,29.81,SSW,199,3.0,9.0,50,0.00,,---,0.00,VWS V14.01,2013-03-16 18:10:00,
2013-03-16 14:15:00,38.8,20.3,29.81,SW,232,7.0,9.0,47,0.00,,---,0.00,VWS V14.01,2013-03-16 18:15:00,
2013-03-16 14:20:00,38.9,19.9,29.81,SSW,212,3.0,9.0,46,0.00,,---,0.00,VWS V14.01,2013-03-16 18:20:00,
2013-03-16 14:25:00,38.9,20.4,29.81,South,186,6.0,9.0,47,0.00,,---,0.00,VWS V14.01,2013-03-16 18:25:00,
2013-03-16 14:30:00,39.0,19.5,29.81,SW,214,8.0,9.0,45,0.00,,---,0.00,VWS V14.01,2013-03-16 18:30:00,
2013-03-16 14:35:00,38.9,19.9,29.81,SSW,199,3.0,8.0,46,0.00,,---,0.00,VWS V14.01,2013-03-16 18:35:00,
2013-03-16 14:40:00,38.7,21.7,29.81,South,174,8.0,9.0,50,0.00,,---,0.00,VWS V14.01,2013-03-16 18:40:00,
2013-03-16 14:45:00,38.8,22.7,29.81,SSW,213,10.0,12.0,52,0.00,,---,0.00,VWS V14.01,2013-03-16 18:45:00,
2013-03-16 14:50:00,38.7,22.1,29.81,SSE,164,5.0,13.0,51,0.00,,---,0.00,VWS V14.01,2013-03-16 18:50:00,
2013-03-16 14:55:00,38.5,21.0,29.81,South,170,4.0,13.0,49,0.00,,---,0.00,VWS V14.01,2013-03-16 18:55:00,
2013-03-16 15:00:00,38.5,22.0,29.81,SSW,205,3.0,13.0,51,0.00,,---,0.00,VWS V14.01,2013-03-16 19:00:00,
2013-03-16 15:05:00,38.4,21.4,29.81,SW,222,6.0,10.0,50,0.00,,---,0.00,VWS V14.01,2013-03-16 19:05:00,
2013-03-16 15:10:00,38.3,21.8,29.82,SSW,200,10.0,11.0,51,0.00,,---,0.00,VWS V14.01,2013-03-16 19:10:00,
2013-03-16 15:15:00,38.0,20.5,29.82,South,181,2.0,11.0,49,0.00,,---,0.00,VWS V14.01,2013-03-16 19:15:00,
2013-03-16 15:20:00,38.1,20.6,29.82,SSW,193,7.0,11.0,49,0.00,,---,0.00,VWS V14.01,2013-03-16 19:20:00,
2013-03-16 15:25:00,37.9,20.9,29.81,South,174,5.0,11.0,50,0.00,,---,0.00,VWS V14.01,2013-03-16 19:25:00,
2013-03-16 15:30:00,38.0,22.4,29.81,South,175,7.0,11.0,53,0.00,,---,0.00,VWS V14.01,2013-03-16 19:30:00,
2013-03-16 15:35:00,37.7,23.0,29.81,South,177,6.0,11.0,55,0.00,,---,0.00,VWS V14.01,2013-03-16 19:35:00,
2013-03-16 15:40:00,37.7,21.2,29.81,SSW,207,9.0,11.0,51,0.00,,---,0.00,VWS V14.01,2013-03-16 19:40:00,
2013-03-16 15:45:00,37.8,21.8,29.81,South,174,6.0,11.0,52,0.00,,---,0.00,VWS V14.01,2013-03-16 19:45:00,
2013-03-16 15:50:00,37.9,21.9,29.81,SSE,161,3.0,11.0,52,0.00,,---,0.00,VWS V14.01,2013-03-16 19:50:00,
2013-03-16 15:55:00,38.0,22.9,29.81,South,188,8.0,11.0,54,0.00,,---,0.00,VWS V14.01,2013-03-16 19:55:00,
2013-03-16 16:00:00,38.0,22.4,29.81,SSE,153,4.0,11.0,53,0.00,,---,0.00,VWS V14.01,2013-03-16 20:00:00,
2013-03-16 16:05:00,37.9,23.2,29.81,South,186,7.0,8.0,55,0.00,,---,0.00,VWS V14.01,2013-03-16 20:05:00,
2013-03-16 16:10:00,37.8,22.7,29.82,South,171,4.0,9.0,54,0.00,,---,0.00,VWS V14.01,2013-03-16 20:10:00,
2013-03-16 16:15:00,37.9,23.2,29.81,South,175,7.0,9.0,55,0.00,,---,0.00,VWS V14.01,2013-03-16 20:15:00,
2013-03-16 16:20:00,38.1,23.8,29.81,South,178,7.0,9.0,56,0.00,,---,0.00,VWS V14.01,2013-03-16 20:20:00,
2013-03-16 16:25:00,38.4,23.7,29.81,SSE,164,5.0,9.0,55,0.00,,---,0.00,VWS V14.01,2013-03-16 20:25:00,
2013-03-16 16:30:00,38.5,23.3,29.81,SSE,155,7.0,9.0,54,0.00,,---,0.00,VWS V14.01,2013-03-16 20:30:00,
2013-03-16 16:35:00,38.4,22.8,29.81,South,171,7.0,11.0,53,0.00,,---,0.00,VWS V14.01,2013-03-16 20:35:00,
2013-03-16 16:40:00,38.3,22.2,29.80,SE,128,2.0,11.0,52,0.00,,---,0.00,VWS V14.01,2013-03-16 20:40:00,
2013-03-16 16:45:00,38.7,22.6,29.80,South,182,7.0,11.0,52,0.00,,---,0.00,VWS V14.01,2013-03-16 20:45:00,
2013-03-16 16:50:00,39.1,22.5,29.80,SSW,192,7.0,11.0,51,0.00,,---,0.00,VWS V14.01,2013-03-16 20:50:00,
2013-03-16 16:55:00,39.3,24.1,29.80,South,170,5.0,11.0,54,0.00,,---,0.00,VWS V14.01,2013-03-16 20:55:00,
2013-03-16 17:00:00,39.3,23.6,29.81,South,178,5.0,11.0,53,0.00,,---,0.00,VWS V14.01,2013-03-16 21:00:00,
2013-03-16 17:05:00,39.4,24.1,29.80,South,180,2.0,8.0,54,0.00,,---,0.00,VWS V14.01,2013-03-16 21:05:00,
2013-03-16 17:10:00,39.6,22.0,29.80,South,182,2.0,8.0,49,0.00,,---,0.00,VWS V14.01,2013-03-16 21:10:00,
2013-03-16 17:15:00,39.8,23.2,29.81,South,178,3.0,9.0,51,0.00,,---,0.00,VWS V14.01,2013-03-16 21:15:00,
2013-03-16 17:20:00,39.7,22.6,29.80,SSW,193,8.0,10.0,50,0.00,,---,0.00,VWS V14.01,2013-03-16 21:20:00,
2013-03-16 17:25:00,39.2,23.5,29.81,SSW,201,3.0,10.0,53,0.00,,---,0.00,VWS V14.01,2013-03-16 21:25:00,
2013-03-16 17:30:00,38.8,23.6,29.81,South,170,5.0,10.0,54,0.00,,---,0.00,VWS V14.01,2013-03-16 21:30:00,
2013-03-16 17:35:00,38.7,23.9,29.80,SW,217,8.0,8.0,55,0.00,,---,0.00,VWS V14.01,2013-03-16 21:35:00,
2013-03-16 17:40:00,38.7,23.9,29.80,South,182,6.0,11.0,55,0.00,,---,0.00,VWS V14.01,2013-03-16 21:40:00,
2013-03-16 17:45:00,38.4,24.1,29.80,SSW,199,5.0,11.0,56,0.00,,---,0.00,VWS V14.01,2013-03-16 21:45:00,
2013-03-16 17:50:00,38.1,24.6,29.79,South,182,3.0,11.0,58,0.00,,---,0.00,VWS V14.01,2013-03-16 21:50:00,
2013-03-16 17:55:00,37.9,24.9,29.79,SSW,192,6.0,11.0,59,0.00,,---,0.00,VWS V14.01,2013-03-16 21:55:00,
2013-03-16 18:00:00,37.7,25.1,29.80,South,187,7.0,11.0,60,0.00,,---,0.00,VWS V14.01,2013-03-16 22:00:00,
2013-03-16 18:05:00,37.4,24.4,29.80,SSW,211,9.0,10.0,59,0.00,,---,0.00,VWS V14.01,2013-03-16 22:05:00,
2013-03-16 18:10:00,37.2,23.8,29.80,SSW,204,9.0,11.0,58,0.00,,---,0.00,VWS V14.01,2013-03-16 22:10:00,
2013-03-16 18:15:00,37.0,23.6,29.80,SSW,197,9.0,11.0,58,0.00,,---,0.00,VWS V14.01,2013-03-16 22:15:00,
2013-03-16 18:20:00,36.9,24.3,29.80,SW,229,4.0,11.0,60,0.00,,---,0.00,VWS V14.01,2013-03-16 22:20:00,
2013-03-16 18:25:00,36.9,24.3,29.80,SW,220,7.0,11.0,60,0.00,,---,0.00,VWS V14.01,2013-03-16 22:25:00,
2013-03-16 18:30:00,36.8,24.6,29.80,SSW,207,9.0,11.0,61,0.00,,---,0.00,VWS V14.01,2013-03-16 22:30:00,
2013-03-16 18:35:00,36.8,24.6,29.80,South,173,7.0,9.0,61,0.00,,---,0.00,VWS V14.01,2013-03-16 22:35:00,
2013-03-16 18:40:00,36.7,24.5,29.80,SSW,195,6.0,10.0,61,0.00,,---,0.00,VWS V14.01,2013-03-16 22:40:00,
2013-03-16 18:45:00,36.7,24.1,29.80,South,187,6.0,11.0,60,0.00,,---,0.00,VWS V14.01,2013-03-16 22:45:00,
2013-03-16 18:50:00,36.7,24.5,29.80,SSW,205,7.0,11.0,61,0.00,,---,0.00,VWS V14.01,2013-03-16 22:50:00,
2013-03-16 18:55:00,36.7,24.5,29.80,SW,224,7.0,11.0,61,0.00,,---,0.00,VWS V14.01,2013-03-16 22:55:00,
2013-03-16 19:00:00,36.8,24.6,29.80,SSW,199,5.0,11.0,61,0.00,,---,0.00,VWS V14.01,2013-03-16 23:00:00,
2013-03-16 19:05:00,36.8,25.0,29.80,SSW,209,5.0,10.0,62,0.00,,---,0.00,VWS V14.01,2013-03-16 23:05:00,
2013-03-16 19:10:00,36.8,24.6,29.80,SSW,203,7.0,11.0,61,0.00,,---,0.00,VWS V14.01,2013-03-16 23:10:00,
2013-03-16 19:15:00,36.8,23.8,29.81,SSW,208,5.0,12.0,59,0.00,,---,0.00,VWS V14.01,2013-03-16 23:15:00,
2013-03-16 19:20:00,36.8,24.2,29.81,SSW,197,8.0,13.0,60,0.00,,---,0.00,VWS V14.01,2013-03-16 23:20:00,
2013-03-16 19:25:00,36.9,24.7,29.81,SSW,208,7.0,13.0,61,0.00,,---,0.00,VWS V14.01,2013-03-16 23:25:00,
2013-03-16 19:30:00,36.9,24.3,29.81,SSW,208,11.0,13.0,60,0.00,,---,0.00,VWS V14.01,2013-03-16 23:30:00,
2013-03-16 19:35:00,36.9,24.3,29.82,South,181,8.0,13.0,60,0.00,,---,0.00,VWS V14.01,2013-03-16 23:35:00,
2013-03-16 19:40:00,36.9,24.7,29.82,SSW,211,9.0,13.0,61,0.00,,---,0.00,VWS V14.01,2013-03-16 23:40:00,
2013-03-16 19:45:00,36.9,24.7,29.82,SSW,200,11.0,13.0,61,0.00,,---,0.00,VWS V14.01,2013-03-16 23:45:00,
2013-03-16 19:50:00,36.9,24.3,29.82,South,184,9.0,13.0,60,0.00,,---,0.00,VWS V14.01,2013-03-16 23:50:00,
2013-03-16 19:55:00,36.9,23.9,29.82,SW,218,4.0,13.0,59,0.00,,---,0.00,VWS V14.01,2013-03-16 23:55:00,
2013-03-16 20:00:00,36.9,25.1,29.83,SSW,209,7.0,13.0,62,0.00,,---,0.00,VWS V14.01,2013-03-17 00:00:00,
2013-03-16 20:05:00,36.9,25.5,29.83,SW,219,5.0,12.0,63,0.00,,---,0.00,VWS V14.01,2013-03-17 00:05:00,
2013-03-16 20:10:00,37.0,24.8,29.83,SSW,204,10.0,12.0,61,0.00,,---,0.00,VWS V14.01,2013-03-17 00:10:00,
2013-03-16 20:15:00,37.0,25.6,29.83,WSW,242,6.0,13.0,63,0.00,,---,0.00,VWS V14.01,2013-03-17 00:15:00,
2013-03-16 20:20:00,37.1,27.5,29.83,SW,222,13.0,15.0,68,0.00,,---,0.00,VWS V14.01,2013-03-17 00:20:00,
2013-03-16 20:25:00,37.0,29.2,29.83,SW,215,7.0,15.0,73,0.00,,---,0.00,VWS V14.01,2013-03-17 00:25:00,
2013-03-16 20:30:00,36.8,29.3,29.83,SW,223,15.0,16.0,74,0.00,,---,0.00,VWS V14.01,2013-03-17 00:30:00,
2013-03-16 20:35:00,36.6,29.4,29.84,SW,225,13.0,14.0,75,0.00,,---,0.00,VWS V14.01,2013-03-17 00:35:00,
2013-03-16 20:40:00,36.5,29.7,29.84,SW,228,5.0,15.0,76,0.00,,---,0.00,VWS V14.01,2013-03-17 00:40:00,
2013-03-16 20:45:00,36.5,30.0,29.85,SW,217,2.0,16.0,77,0.00,,---,0.00,VWS V14.01,2013-03-17 00:45:00,
2013-03-16 20:50:00,36.4,30.2,29.84,SW,232,10.0,20.0,78,0.00,,---,0.00,VWS V14.01,2013-03-17 00:50:00,
2013-03-16 20:55:00,36.3,30.4,29.84,SW,230,9.0,20.0,79,0.00,,---,0.00,VWS V14.01,2013-03-17 00:55:00,
2013-03-16 21:00:00,36.2,30.9,29.84,SW,232,12.0,20.0,81,0.00,,---,0.00,VWS V14.01,2013-03-17 01:00:00,
2013-03-16 21:05:00,36.1,31.1,29.85,SW,220,16.0,16.0,82,0.00,,---,0.00,VWS V14.01,2013-03-17 01:05:00,
2013-03-16 21:10:00,36.1,31.1,29.85,SSW,209,4.0,16.0,82,0.00,,---,0.00,VWS V14.01,2013-03-17 01:10:00,
2013-03-16 21:15:00,36.0,31.4,29.84,SSW,212,5.0,16.0,83,0.00,,---,0.00,VWS V14.01,2013-03-17 01:15:00,
2013-03-16 21:20:00,36.0,31.4,29.84,SW,222,9.0,16.0,83,0.00,,---,0.00,VWS V14.01,2013-03-17 01:20:00,
2013-03-16 21:25:00,36.0,31.4,29.85,SW,232,8.0,16.0,83,0.00,,---,0.00,VWS V14.01,2013-03-17 01:25:00,
2013-03-16 21:30:00,36.0,31.4,29.85,SW,232,6.0,16.0,83,0.00,,---,0.00,VWS V14.01,2013-03-17 01:30:00,
2013-03-16 21:35:00,36.1,31.7,29.85,SW,228,3.0,10.0,84,0.00,,---,0.00,VWS V14.01,2013-03-17 01:35:00,
2013-03-16 21:40:00,36.1,31.7,29.85,SW,229,4.0,14.0,84,0.00,,---,0.00,VWS V14.01,2013-03-17 01:40:00,
2013-03-16 21:45:00,36.1,31.7,29.85,SW,232,10.0,14.0,84,0.00,,---,0.00,VWS V14.01,2013-03-17 01:45:00,
2013-03-16 21:50:00,36.1,31.5,29.85,WSW,237,1.0,14.0,83,0.00,,---,0.00,VWS V14.01,2013-03-17 01:50:00,
2013-03-16 21:55:00,36.1,31.5,29.85,WSW,250,1.0,14.0,83,0.00,,---,0.00,VWS V14.01,2013-03-17 01:55:00,
2013-03-16 22:00:00,36.1,31.1,29.85,WSW,237,10.0,14.0,82,0.00,,---,0.00,VWS V14.01,2013-03-17 02:00:00,
2013-03-16 22:05:00,36.1,31.1,29.85,SW,230,10.0,10.0,82,0.00,,---,0.00,VWS V14.01,2013-03-17 02:05:00,
2013-03-16 22:10:00,36.2,30.9,29.85,SW,226,2.0,10.0,81,0.00,,---,0.00,VWS V14.01,2013-03-17 02:10:00,
2013-03-16 22:15:00,36.2,30.9,29.86,WSW,244,8.0,10.0,81,0.00,,---,0.00,VWS V14.01,2013-03-17 02:15:00,
2013-03-16 22:20:00,36.2,30.6,29.86,WSW,258,2.0,10.0,80,0.00,,---,0.00,VWS V14.01,2013-03-17 02:20:00,
2013-03-16 22:25:00,36.3,30.1,29.86,SW,234,7.0,10.0,78,0.00,,---,0.00,VWS V14.01,2013-03-17 02:25:00,
2013-03-16 22:30:00,36.3,29.5,29.86,SW,227,10.0,11.0,76,0.00,,---,0.00,VWS V14.01,2013-03-17 02:30:00,
2013-03-16 22:35:00,36.3,28.8,29.87,SW,229,9.0,9.0,74,0.00,,---,0.00,VWS V14.01,2013-03-17 02:35:00,
2013-03-16 22:40:00,36.3,29.1,29.87,SSW,199,4.0,10.0,75,0.00,,---,0.00,VWS V14.01,2013-03-17 02:40:00,
2013-03-16 22:45:00,36.3,29.1,29.86,SW,234,3.0,10.0,75,0.00,,---,0.00,VWS V14.01,2013-03-17 02:45:00,
2013-03-16 22:50:00,36.2,29.0,29.87,SW,233,8.0,10.0,75,0.00,,---,0.00,VWS V14.01,2013-03-17 02:50:00,
2013-03-16 22:55:00,36.2,29.0,29.87,East,94,11.0,11.0,75,0.00,,---,0.00,VWS V14.01,2013-03-17 02:55:00,
2013-03-16 23:00:00,36.3,30.1,29.87,SSW,197,2.0,13.0,78,0.00,,---,0.00,VWS V14.01,2013-03-17 03:00:00,
2013-03-16 23:05:00,36.2,30.0,29.87,WSW,238,11.0,14.0,78,0.00,,---,0.00,VWS V14.01,2013-03-17 03:05:00,
2013-03-16 23:10:00,36.2,30.0,29.87,South,186,10.0,14.0,78,0.00,,---,0.00,VWS V14.01,2013-03-17 03:10:00,
2013-03-16 23:15:00,36.2,30.3,29.87,SW,225,10.0,14.0,79,0.00,,---,0.00,VWS V14.01,2013-03-17 03:15:00,
2013-03-16 23:20:00,36.2,30.0,29.87,WSW,245,11.0,14.0,78,0.00,,---,0.00,VWS V14.01,2013-03-17 03:20:00,
2013-03-16 23:25:00,36.2,29.7,29.87,WSW,242,8.0,14.0,77,0.00,,---,0.00,VWS V14.01,2013-03-17 03:25:00,
2013-03-16 23:30:00,36.2,29.4,29.88,SW,230,9.0,14.0,76,0.00,,---,0.00,VWS V14.01,2013-03-17 03:30:00,
2013-03-16 23:35:00,36.2,29.4,29.88,SSW,209,4.0,11.0,76,0.00,,---,0.00,VWS V14.01,2013-03-17 03:35:00,
2013-03-16 23:40:00,36.2,30.9,29.88,SW,220,7.0,14.0,81,0.00,,---,0.00,VWS V14.01,2013-03-17 03:40:00,
2013-03-16 23:45:00,36.1,31.1,29.88,SW,220,10.0,14.0,82,0.00,,---,0.00,VWS V14.01,2013-03-17 03:45:00,
2013-03-16 23:50:00,36.0,31.0,29.88,WSW,237,9.0,14.0,82,0.00,,---,0.00,VWS V14.01,2013-03-17 03:50:00,
2013-03-16 23:55:00,35.9,31.0,29.89,SW,223,2.0,14.0,82,0.00,,---,0.00,VWS V14.01,2013-03-17 03:55:00,